CW0570 Weather Reports


Display with metric or nautical units.
time (UTC)temp
F
wind
direction
speed
MPH
gust
MPH
rain 1hr
in
rain 24hr
in
rain mn
in
humidity
%
barometer
mb
20260504234550 56 110 0.0 2.0 0.00 0.05 0.03 87 1015.8
20260504233104 56 110 0.0 2.0 0.00 0.05 0.03 88 1015.8
20260504231548 56 281 0.0 2.0 0.00 0.05 0.03 88 1016.0
20260504230046 56 256 1.0 5.0 0.00 0.05 0.03 87 1015.8
20260504224552 56 286 0.0 2.0 0.00 0.05 0.03 88 1016.0
20260504223100 56 227 0.0 4.0 0.00 0.05 0.03 87 1016.2
20260504221544 57 175 0.0 4.0 0.00 0.05 0.03 87 1016.4
20260504220044 57 223 1.0 5.0 0.00 0.05 0.03 87 1016.5
20260504214543 57 234 0.0 2.0 0.00 0.05 0.03 87 1016.6
20260504213054 58 200 0.0 2.0 0.00 0.05 0.03 88 1016.5
20260504211542 57 281 0.0 3.0 0.00 0.05 0.03 87 1016.4
20260504210042 57 294 0.0 7.0 0.00 0.05 0.03 87 1016.5
20260504204546 58 219 0.0 4.0 0.00 0.05 0.03 87 1016.6
20260504203053 58 238 1.0 6.0 0.00 0.05 0.03 87 1016.6
20260504201539 58 248 0.0 3.0 0.00 0.05 0.03 86 1016.6
20260504200037 57 252 0.0 2.0 0.00 0.05 0.03 87 1016.6
20260504194535 57 242 0.0 2.0 0.00 0.05 0.03 89 1016.7
20260504193035 57 166 0.0 4.0 0.00 0.05 0.03 90 1016.9
20260504191534 57 160 0.0 3.0 0.00 0.05 0.03 90 1016.9
20260504190036 57 128 0.0 2.0 0.00 0.05 0.03 90 1017.0
20260504184533 57 257 0.0 4.0 0.00 0.05 0.03 89 1017.1
20260504183031 57 284 1.0 4.0 0.00 0.05 0.03 89 1016.9
20260504181536 57 167 0.0 3.0 0.00 0.05 0.03 89 1016.8
20260504180028 57 248 0.0 3.0 0.00 0.05 0.03 89 1016.7
20260504174527 57 209 0.0 2.0 0.00 0.05 0.03 92 1016.6
20260504173024 56 209 0.0 2.0 0.00 0.05 0.03 91 1016.5
20260504171522 55 101 0.0 2.0 0.00 0.05 0.03 93 1016.5
20260504081537 51 148 0.0 2.0 0.00 0.03 0.00 97 1015.9
20260504050021 52 84 0.0 0.0 0.00 0.03 0.03 96 1014.8
20260504044530 52 84 0.0 0.0 0.00 0.03 0.03 96 1014.9
20260504043023 52 84 0.0 0.0 0.00 0.03 0.03 96 1015.2
20260504041518 52 84 0.0 0.0 0.00 0.03 0.03 96 1015.2
20260504040017 51 117 0.0 2.0 0.00 0.03 0.03 95 1015.3
20260504034516 52 117 0.0 2.0 0.01 0.03 0.03 95 1015.3
20260504033014 52 117 0.0 3.0 0.02 0.03 0.03 95 1015.2
20260504031514 52 141 1.0 3.0 0.02 0.03 0.03 94 1015.2
20260504030012 52 144 0.0 2.0 0.02 0.03 0.03 94 1015.0
20260504024512 53 32 0.0 5.0 0.01 0.02 0.02 92 1014.9
20260504023009 53 355 1.0 5.0 0.00 0.01 0.01 90 1014.7
20260504021510 53 236 1.0 9.0 0.00 0.01 0.01 89 1014.2
20260504020012 54 319 3.0 11.0 0.00 0.01 0.01 89 1014.1
20260504014504 54 128 1.0 2.0 0.00 0.01 0.01 89 1013.7
20260504013004 54 240 1.0 8.0 0.00 0.01 0.01 88 1013.5
20260504011501 55 232 2.0 7.0 0.00 0.01 0.01 87 1013.4
20260504010059 56 110 0.0 2.0 0.00 0.01 0.01 88 1012.6
20260504004603 57 138 1.0 3.0 0.00 0.02 0.01 87 1012.7
20260504003100 57 111 0.0 4.0 0.00 0.02 0.01 86 1012.9
20260504001607 60 135 2.0 6.0 0.00 0.02 0.01 81 1012.6
20260504000059 61 331 0.0 6.0 0.00 0.02 0.01 81 1012.3